Tracking 28790 objects as of 18-Apr-2024
HD Live streaming from Space Station
objects crossing your sky now

FENGYUN 1C DEB

Track FENGYUN 1C DEB now!
10-day predictions


NORAD ID: 37924
Int'l Code: 1999-025ENZ
Perigee: 784.9 km
Apogee: 852.7 km
Inclination: 98.8 °
Period: 101.1 minutes
Semi major axis: 7189 km
RCS: 0.0011 m2 (small)
Launch date: May 10, 1999
Source: People's Republic of China (PRC)
Launch site: Taiyaun Space Center, China (TSC)

Note: This is SATELLITE DEBRIS
Your satellite tracking list
Your tracking list is empty




NASA's NSSDC Master Catalog

Two Line Element Set (TLE):
1 37924U 99025ENZ 24101.16723876  .00003392  00000-0  14775-2 0  9991
2 37924  98.7825 172.7729 0047135  21.7463 338.5703 14.24055689556823
Source of the keplerian elements: AFSPC